Flag for U.S.A. Weather past 2 weeks in Mobile, Alabama, U.S.A.

Now
82 °F

Broken clouds.


Feels Like: 86 °F
Forecast: 69 / 85 °F
Wind: 5 mph from Southeast

Location: Mobile Downtown Airport

Current Time: Jun 2, 2015 at 4:36:25 PM

Latest Report: Jun 2, 2015 at 3:53 PM


Visibility: 10 mi

Pressure: 29.94 "Hg

Humidity: 70%

Dew point: 71 °F

Location of MobileLocation

Historic Weather in Mobile — Graph

°F

Mobile temperature yesterday

Maximum temperature yesterday: 81 °F (at 12:53 PM)
Minimum temperature yesterday: 71 °F (at 9:53 PM)
Average temperature yesterday: 75 °F

Past Weeks' High & Low Weather Summary

 TemperatureHumidityPressure
High89 °F (May 20, 12:53 PM)97% (May 26, 8:53 AM)30.26 "Hg (May 26, 8:53 AM)
Low61 °F (May 22, 6:53 AM)42% (May 22, 2:53 PM)29.96 "Hg (Jun 2, 2:53 PM)
Average77 °F79%30.09 "Hg
* Reported May 18 2:53 PM — Jun 2 2:53 PM, Mobile, Weather by CustomWeather, © 2015

Note: Actual official high and low records may vary slightly from our data, if they occured in-between our weather recording intervals... More about our weather records

Advertising

Mobile weather history for previous 24 hours

 ConditionsComfort  
Time TempWeatherWind HumidityBarometerVisibility
2:53 PM
Tue, Jun 2
80 °FBroken clouds.5 mph76%29.96 "Hg10 mi
1:53 PM82 °FThunderstorms. Partly sunny.6 mph65%29.98 "Hg10 mi
12:53 PM84 °FPartly sunny.10 mph65%29.99 "Hg10 mi
11:53 AM82 °FScattered clouds.8 mph72%30.01 "Hg10 mi
10:53 AM80 °FBroken clouds.7 mph76%30.03 "Hg10 mi
9:53 AM78 °FBroken clouds.5 mph84%30.03 "Hg10 mi
8:53 AM74 °FPartly sunny.3 mph91%30.03 "Hg7 mi
7:53 AM73 °FFog.5 mph94%30.01 "Hg4 mi
7:02 AM72 °FFog.5 mph97%30.00 "Hg3 mi
6:53 AM72 °FFog.6 mph97%29.99 "Hg3 mi
5:53 AM72 °FFog.5 mph93%30.00 "Hg3 mi
4:53 AM71 °FOvercast.3 mph96%29.99 "Hg10 mi
3:53 AM71 °FPassing clouds.3 mph96%29.99 "Hg10 mi
3:02 AM71 °FPassing clouds.3 mph96%30.00 "Hg10 mi
2:53 AM71 °FPassing clouds.5 mph96%30.00 "Hg10 mi
1:53 AM72 °FPartly cloudy.5 mph93%30.01 "Hg10 mi
12:53 AM72 °FPassing clouds.6 mph97%30.02 "Hg10 mi
11:53 PM
Mon, Jun 1
72 °FPassing clouds.3 mph97%30.03 "Hg10 mi
9:53 PM71 °FClear.No wind96%30.02 "Hg9 mi
8:53 PM72 °FPassing clouds.No wind97%30.01 "Hg10 mi
7:53 PM73 °FPassing clouds.No wind94%30.00 "Hg10 mi
6:53 PM74 °FScattered clouds.No wind94%30.00 "Hg10 mi
5:53 PM74 °FScattered clouds.3 mph88%30.00 "Hg10 mi
4:53 PM72 °FRain. Cloudy.3 mph84%30.01 "Hg8 mi
Weather by CustomWeather, © 2015

See weather overviewHow to use our weather pages